Current Weather Conditions: station ENRS

sailwx.info

See reports from other nearby stations

no recent reports received from weather station ID ENRS

Tides Pressure Air temp Water temp Dewpoint Dewpoint depression Visibility Wind speed Wind direction Waves Ship positions
date/time (UTC)wind fromknots sea level pressurealtimeterstation pressurevisibilityair tempwater tempwave heightnotes
2018-Feb-23 08:20 100 14 5.4-0.0 Light snow showers.
2018-Feb-23 07:50 100 18 5.4-0.0 Showers in the vicinity.
2018-Feb-23 07:20 100 18 5.4-0.0
2018-Feb-23 06:20 100 15 5.4-0.0
2018-Feb-23 05:50 100 17 5.4-0.0
2018-Feb-22 16:50 090 15 5.4-1.0 Showers in the vicinity.
2018-Feb-22 16:20 090 15 5.4-1.0 Showers in the vicinity.
2018-Feb-22 15:50 090 17 5.4-1.0 Showers in the vicinity.
2018-Feb-22 15:20 090 14 5.4-0.0 Showers in the vicinity.
2018-Feb-22 14:50 090 14 5.4-0.0 Showers in the vicinity.
2018-Feb-22 13:50 100 13 0.5-1.0 Snow showers.
2018-Feb-22 13:20 100 14 3.2-1.0 Light snow showers.
2018-Feb-22 12:50 100 13 3.2-0.0 Light snow showers.
2018-Feb-22 12:20 100 14 3.8-1.0 Light snow showers.
2018-Feb-22 11:50 100 14 2.7-1.0 Light snow showers.
2018-Feb-22 11:20 100 13 2.2-0.0 Light snow showers.
2018-Feb-22 10:50 110 13 2.7-0.0 Light snow showers.
2018-Feb-22 08:50 120 11 5.4-0.0 Light snow showers.
2018-Feb-22 06:50 120 11 3.2-0.0 Light snow showers.
2018-Feb-22 06:20 110 13 5.4-0.0 Light snow showers.
2018-Feb-22 05:50 110 12 5.4-0.0
2018-Feb-21 16:50 100 8 5.4-2.0
2018-Feb-21 16:20 100 7 5.4-2.0
2018-Feb-21 14:50 100 7 5.4-2.0
2018-Feb-21 14:20 090 8 5.4-1.0
2018-Feb-21 13:50 100 9 5.4-1.0
2018-Feb-21 12:50 100 9 5.4-1.0
2018-Feb-21 11:50 110 11 5.4-1.0
2018-Feb-21 11:20 110 11 5.4-1.0